Location: Unspecified
(0.0000°N, 0.0000°E)
Time: 18:14:28
(UTC+00:00)

Kosmos-2004 - Pass Details

Date: 22 May 2026
Orbit: 969 x 1012 km, 83.0° (Epoch: 10 June)

Event Time Altitude Azimuth Distance (km) Brightness Sun altitude
Exits shadow 04:31:32 26° 210° (SSW) 1,823 7.0 -19.9°
Maximum altitude 04:34:53 50° 273° (W) 1,215 6.1 -19.1°
Drops below altitude 10° 04:40:52 10° 347° (NNW) 2,720 8.4 -17.7°
Sets 04:43:28 0° 353° (N) 3,671 9.2 -17.1°
